sat.trackr.live / text

‹ back to catalog

COSMOS 2401

NORAD 27869 · 2003-037B

PAYLOAD ACTIVE UNKNOWN

§ Identity

Operator
Country
CIS
Launch date
2003-08-19
Launch site
PLMSC
Launch vehicle
Mass (kg)
RCS (m²)
0.96

External: N2YO · Heavens-Above · Gunter

§ Orbital elements

Epoch: 2026-05-25T03:11:35.108736Z

Period
115.62 min
Inclination
82.4710°
Eccentricity
0.0023167
Mean motion
12.45502504 rev/d
Perigee alt
1,465.2 km
Apogee alt
1,501.6 km
Semi-major
7,861.5 km
B*
-5.7848e-4
RAAN
340.7000°
Arg perigee
100.6036°
Mean anomaly
259.7656°
Rev number
3,490

§ Raw data

COSMOS 24011 27869U 03037B   26145.13304524 -.00000073  00000+0 -57848-3 0  99912 27869  82.4710 340.7000 0023167 100.6036 259.7656 12.45502504 34909

JSON: /api/v1/satellites/27869 · /tle

For live sub-satellite position, see the globe view (requires WebGL).

§ Visibility from observer

Set your observer location to see the next 7 days of passes ≥ 10°. The values pass through the URL so the page stays shareable.

No JS? Fill the form by hand. The geolocation button needs JavaScript.